• Processing (Info)

  • MPEC 2006-V46 : 2006 VU2

    The following Minor Planet Electronic Circular may be linked-to from your own Web pages, but must not otherwise be redistributed electronically.

    A form allowing access to any MPEC is at the bottom of this page.


    Read MPEC 2006-V45 Read MPEC 2006-V47


    M.P.E.C. 2006-V46                                Issued 2006 Nov. 13, 16:58 UT
    
         The Minor Planet Electronic Circulars contain information on unusual
             minor planets and routine data on comets.  They are published
       on behalf of Commission 20 of the International Astronomical Union by the
              Minor Planet Center, Smithsonian Astrophysical Observatory,
                              Cambridge, MA 02138, U.S.A.
    
                 Prepared using the Tamkin Foundation Computer Network
    
                                  MPC@CFA.HARVARD.EDU
              URL http://cfa-www.harvard.edu/iau/mpc.html  ISSN 1523-6714
    
                                       2006 VU2
    
    Observations:
         K06V02U* C2006 11 11.22428 00 58 04.83 +06 23 25.1          21.3 V EV046G96
         K06V02U  C2006 11 11.22926 00 58 08.58 +06 23 37.4          22.4 V EV046G96
         K06V02U  C2006 11 11.23407 00 58 12.07 +06 23 47.5          20.8 V EV046G96
         K06V02U  C2006 11 11.23895 00 58 15.67 +06 23 58.9          22.3 V EV046G96
         K06V02U  C2006 11 11.24494 00 58 20.12 +06 24 12.8                 EV046G96
         K06V02U  C2006 11 11.24654 00 58 21.29 +06 24 16.9          21.0 V EV046G96
         K06V02U  C2006 11 11.29043 00 58 53.86 +06 25 57.3          21.1 V EV046G96
         K06V02U  C2006 11 11.29096 00 58 54.26 +06 25 58.9          21.2 V EV046G96
         K06V02U  C2006 11 12.27280 01 11 51.68 +07 03 46.3          22.3 V EV046G96
         K06V02U  C2006 11 12.27333 01 11 52.08 +07 03 47.5          21.1 V EV046G96
         K06V02U  C2006 11 12.27440 01 11 52.83 +07 03 49.5          21.1 V EV046G96
         K06V02U  C2006 11 12.27639 01 11 54.39 +07 03 55.0          21.6 V EV046G96
         K06V02U  C2006 11 12.27694 01 11 54.80 +07 03 55.4          21.2 V EV046G96
         K06V02U  C2006 11 13.21799 01 24 27.41 +07 39 17.5          21.9 V EV046G96
         K06V02U  C2006 11 13.21940 01 24 28.34 +07 39 19.3          22.4 V EV046G96
    
    Observer details:
    G96 Mt. Lemmon Survey.  Observer E. J. Christensen.  Measurers E. C. Beshore,
        E. J. Christensen, G. J. Garradd, A. R. Gibbs, A. D. Grauer, R. E. Hill,
        R. A. Kowalski, S. M. Larson, R. H. McNaught.  1.5-m reflector + CCD.
    
    Orbital elements:
    2006 VU2                                                 Earth MOID = 0.0510 AU
    Epoch 2006 Sept. 22.0 TT = JDT 2454000.5                MPC
    M 346.53445              (2000.0)            P               Q
    n   0.30724243     Peri.  172.40559     +0.77334246     -0.63342637
    a   2.1751135      Node   226.93359     +0.57973548     +0.72357834
    e   0.5202554      Incl.    2.09387     +0.25660906     +0.27423609
    P   3.21           H   26.1           G   0.15           U   8
    Residuals in seconds of arc
    061111 G96  0.3-  0.1+    061111 G96  0.1-  0.3+    061112 G96  0.7-  0.5-
    061111 G96  0.8+  0.8+    061111 G96  0.1-  0.3-    061112 G96  0.3+  0.5+
    061111 G96  0.2-  0.3-    061111 G96  0.0   0.1+    061112 G96  0.3+  0.3-
    061111 G96  0.3-  0.2-    061112 G96  0.1+  0.1-    061113 G96  0.9+  0.8+
    061111 G96  0.1+  0.1-    061112 G96  0.1+  0.1-    061113 G96  1.0-  0.5-
    
    Ephemeris:
    2006 VU2                 a,e,i = 2.18, 0.52, 2                   q = 1.0435
    Date    TT    R. A. (2000) Decl.     Delta      r     Elong.  Phase     V
    2006 11 11    00 55.15   +06 15.6    0.0663   1.046   146.8    31.3    21.6
    2006 11 16    02 01.06   +09 16.4    0.0679   1.052   157.8    20.8    21.4
    2006 11 21    03 00.75   +11 26.4    0.0757   1.062   166.5    12.5    21.4
    2006 11 26    03 47.67   +12 43.8    0.0884   1.074   170.8     8.5    21.6
    2006 12 01    04 21.98   +13 28.4    0.105    1.090   171.6     7.5    21.9
    
    Kyle E. Smalley              (C) Copyright 2006 MPC           M.P.E.C. 2006-V46
    

    Read MPEC 2006-V45 Read MPEC 2006-V47


    MPEC number:

    Enter an MPEC number in one of the following forms:

    • 1997-B01 (the full form)
    • J97B01 (the packed version of the full form)
    • B01 (the abbreviated form)